Time,TemperatureF,DewpointF,PressureIn,WindDirection,WindDirectionDegrees,WindSpeedMPH,WindSpeedGustMPH,Humidity,HourlyPrecipIn,Conditions,Clouds,dailyrainin,SoftwareType,DateUTC
2013-06-13 00:03:00,57.0,52.0,30.54,North,0,0.0,0.0,84,0.00,,,0.00,Meteo,2013-06-13 05:03:00,
2013-06-13 00:08:00,57.0,53.0,30.54,North,0,0.0,0.0,85,0.00,,,0.00,Meteo,2013-06-13 05:08:00,
2013-06-13 00:13:00,59.0,53.0,30.54,NW,326,2.0,5.0,79,0.00,,,0.00,Meteo,2013-06-13 05:13:00,
2013-06-13 00:18:00,61.0,53.0,30.55,NW,326,2.0,3.0,75,0.00,,,0.00,Meteo,2013-06-13 05:18:00,
2013-06-13 00:23:00,62.0,52.0,30.55,NNW,330,2.0,3.0,70,0.00,,,0.00,Meteo,2013-06-13 05:23:00,
2013-06-13 00:28:00,63.0,51.0,30.55,NNW,341,2.0,3.0,65,0.00,,,0.00,Meteo,2013-06-13 05:28:00,
2013-06-13 00:33:00,64.0,52.0,30.56,NNW,340,4.0,5.0,64,0.00,,,0.00,Meteo,2013-06-13 05:33:00,
2013-06-13 00:38:00,64.0,52.0,30.56,NNW,330,3.0,5.0,64,0.00,,,0.00,Meteo,2013-06-13 05:38:00,
2013-06-13 00:43:00,64.0,52.0,30.56,NNW,333,3.0,5.0,65,0.00,,,0.00,Meteo,2013-06-13 05:43:00,
2013-06-13 00:48:00,64.0,52.0,30.56,NNW,332,2.0,4.0,66,0.00,,,0.00,Meteo,2013-06-13 05:48:00,
2013-06-13 00:54:00,64.0,53.0,30.56,NNW,346,1.0,2.0,67,0.00,,,0.00,Meteo,2013-06-13 05:54:00,
2013-06-13 00:59:00,64.0,52.0,30.56,NNW,345,0.0,1.0,66,0.00,,,0.00,Meteo,2013-06-13 05:59:00,
2013-06-13 01:04:00,63.0,51.0,30.57,NE,42,1.0,3.0,66,0.00,,,0.00,Meteo,2013-06-13 06:04:00,
2013-06-13 01:09:00,64.0,52.0,30.57,North,2,2.0,4.0,65,0.00,,,0.00,Meteo,2013-06-13 06:09:00,
2013-06-13 01:14:00,64.0,52.0,30.57,North,2,2.0,3.0,64,0.00,,,0.00,Meteo,2013-06-13 06:14:00,
2013-06-13 01:19:00,63.0,51.0,30.58,North,7,1.0,3.0,65,0.00,,,0.00,Meteo,2013-06-13 06:19:00,
2013-06-13 01:24:00,63.0,52.0,30.58,North,6,2.0,3.0,67,0.00,,,0.00,Meteo,2013-06-13 06:24:00,
2013-06-13 01:29:00,63.0,52.0,30.58,NNE,21,1.0,3.0,68,0.00,,,0.00,Meteo,2013-06-13 06:29:00,
2013-06-13 01:34:00,62.0,51.0,30.59,NE,46,3.0,6.0,67,0.00,,,0.00,Meteo,2013-06-13 06:34:00,
2013-06-13 01:39:00,62.0,51.0,30.59,North,359,2.0,3.0,66,0.00,,,0.00,Meteo,2013-06-13 06:39:00,
2013-06-13 01:44:00,62.0,51.0,30.59,NE,41,3.0,6.0,68,0.00,,,0.00,Meteo,2013-06-13 06:44:00,
2013-06-13 01:49:00,61.0,50.0,30.60,NE,42,3.0,5.0,67,0.00,,,0.00,Meteo,2013-06-13 06:49:00,
2013-06-13 01:54:00,60.0,49.0,30.60,NE,38,2.0,4.0,68,0.00,,,0.00,Meteo,2013-06-13 06:54:00,
2013-06-13 01:59:00,59.0,49.0,30.60,North,7,2.0,4.0,70,0.00,,,0.00,Meteo,2013-06-13 06:59:00,
2013-06-13 02:04:00,59.0,49.0,30.60,NNE,32,1.0,2.0,70,0.00,,,0.00,Meteo,2013-06-13 07:04:00,
2013-06-13 02:09:00,59.0,49.0,30.61,NNE,28,2.0,4.0,70,0.00,,,0.00,Meteo,2013-06-13 07:09:00,
2013-06-13 02:14:00,58.0,49.0,30.61,NNE,14,1.0,2.0,71,0.00,,,0.00,Meteo,2013-06-13 07:14:00,
2013-06-13 02:19:00,58.0,49.0,30.61,North,0,1.0,2.0,73,0.00,,,0.00,Meteo,2013-06-13 07:19:00,
2013-06-13 02:24:00,58.0,50.0,30.61,North,0,1.0,2.0,74,0.00,,,0.00,Meteo,2013-06-13 07:24:00,
2013-06-13 02:29:00,58.0,50.0,30.61,North,8,1.0,2.0,74,0.00,,,0.00,Meteo,2013-06-13 07:29:00,
2013-06-13 02:34:00,58.0,50.0,30.61,NNW,348,1.0,3.0,74,0.00,,,0.00,Meteo,2013-06-13 07:34:00,
2013-06-13 02:39:00,57.0,49.0,30.62,NNW,341,1.0,3.0,74,0.00,,,0.00,Meteo,2013-06-13 07:39:00,
2013-06-13 02:44:00,57.0,49.0,30.62,NNW,337,1.0,2.0,75,0.00,,,0.00,Meteo,2013-06-13 07:44:00,
2013-06-13 02:49:00,57.0,49.0,30.63,North,3,1.0,3.0,74,0.00,,,0.00,Meteo,2013-06-13 07:49:00,
2013-06-13 02:54:00,57.0,49.0,30.63,NNE,15,1.0,2.0,75,0.00,,,0.00,Meteo,2013-06-13 07:54:00,
2013-06-13 02:59:00,57.0,49.0,30.63,ENE,74,0.0,1.0,75,0.00,,,0.00,Meteo,2013-06-13 07:59:00,
2013-06-13 03:04:00,57.0,49.0,30.63,NE,43,1.0,2.0,75,0.00,,,0.00,Meteo,2013-06-13 08:04:00,
2013-06-13 03:09:00,57.0,49.0,30.63,NE,51,1.0,1.0,75,0.00,,,0.00,Meteo,2013-06-13 08:09:00,
2013-06-13 03:14:00,57.0,49.0,30.63,ENE,75,0.0,1.0,75,0.00,,,0.00,Meteo,2013-06-13 08:14:00,
2013-06-13 03:19:00,57.0,50.0,30.63,NNW,347,1.0,3.0,76,0.00,,,0.00,Meteo,2013-06-13 08:19:00,
2013-06-13 03:24:00,57.0,50.0,30.64,North,3,2.0,3.0,77,0.00,,,0.00,Meteo,2013-06-13 08:24:00,
2013-06-13 03:29:00,57.0,50.0,30.64,NNE,24,1.0,2.0,77,0.00,,,0.00,Meteo,2013-06-13 08:29:00,
2013-06-13 03:34:00,57.0,50.0,30.64,NE,46,2.0,3.0,77,0.00,,,0.00,Meteo,2013-06-13 08:34:00,
2013-06-13 03:39:00,57.0,50.0,30.64,NE,39,0.0,1.0,77,0.00,,,0.00,Meteo,2013-06-13 08:39:00,
2013-06-13 03:44:00,56.0,49.0,30.65,NE,41,0.0,1.0,78,0.00,,,0.00,Meteo,2013-06-13 08:44:00,
2013-06-13 03:49:00,56.0,49.0,30.65,ENE,60,0.0,2.0,78,0.00,,,0.00,Meteo,2013-06-13 08:49:00,
2013-06-13 03:54:00,56.0,49.0,30.65,ENE,67,2.0,3.0,78,0.00,,,0.00,Meteo,2013-06-13 08:54:00,
2013-06-13 03:59:00,56.0,49.0,30.65,NE,56,1.0,3.0,78,0.00,,,0.00,Meteo,2013-06-13 08:59:00,
2013-06-13 04:04:00,56.0,49.0,30.65,East,82,0.0,2.0,78,0.00,,,0.00,Meteo,2013-06-13 09:04:00,
2013-06-13 04:09:00,56.0,49.0,30.65,East,81,1.0,3.0,78,0.00,,,0.00,Meteo,2013-06-13 09:09:00,
2013-06-13 04:14:00,56.0,49.0,30.66,NE,52,2.0,4.0,78,0.00,,,0.00,Meteo,2013-06-13 09:14:00,
2013-06-13 04:19:00,56.0,49.0,30.66,NE,56,2.0,3.0,78,0.00,,,0.00,Meteo,2013-06-13 09:19:00,
2013-06-13 04:24:00,55.0,48.0,30.66,ENE,57,3.0,5.0,78,0.00,,,0.00,Meteo,2013-06-13 09:24:00,
2013-06-13 04:29:00,55.0,48.0,30.66,NE,56,1.0,2.0,78,0.00,,,0.00,Meteo,2013-06-13 09:29:00,
2013-06-13 04:34:00,55.0,48.0,30.66,East,92,0.0,3.0,78,0.00,,,0.00,Meteo,2013-06-13 09:34:00,
2013-06-13 04:39:00,55.0,48.0,30.67,ENE,76,1.0,2.0,78,0.00,,,0.00,Meteo,2013-06-13 09:39:00,
2013-06-13 04:44:00,55.0,48.0,30.67,ENE,77,0.0,1.0,78,0.00,,,0.00,Meteo,2013-06-13 09:44:00,
2013-06-13 04:49:00,55.0,48.0,30.68,ENE,67,1.0,2.0,78,0.00,,,0.00,Meteo,2013-06-13 09:49:00,
2013-06-13 04:55:00,54.0,48.0,30.68,North,0,0.0,0.0,79,0.00,,,0.00,Meteo,2013-06-13 09:55:00,
2013-06-13 05:00:00,54.0,48.0,30.68,ENE,59,1.0,2.0,79,0.00,,,0.00,Meteo,2013-06-13 10:00:00,
2013-06-13 05:05:00,54.0,48.0,30.69,NE,35,1.0,2.0,79,0.00,,,0.00,Meteo,2013-06-13 10:05:00,
2013-06-13 05:10:00,54.0,48.0,30.69,NE,35,0.0,1.0,79,0.00,,,0.00,Meteo,2013-06-13 10:10:00,
2013-06-13 05:15:00,54.0,48.0,30.69,North,0,0.0,0.0,80,0.00,,,0.00,Meteo,2013-06-13 10:15:00,
2013-06-13 05:20:00,54.0,48.0,30.69,NE,35,0.0,1.0,80,0.00,,,0.00,Meteo,2013-06-13 10:20:00,
2013-06-13 05:25:00,53.0,47.0,30.69,NE,35,1.0,2.0,80,0.00,,,0.00,Meteo,2013-06-13 10:25:00,
2013-06-13 05:30:00,53.0,47.0,30.69,NE,35,1.0,2.0,80,0.00,,,0.00,Meteo,2013-06-13 10:30:00,
2013-06-13 05:35:00,53.0,47.0,30.69,NE,40,1.0,1.0,81,0.00,,,0.00,Meteo,2013-06-13 10:35:00,
2013-06-13 05:40:00,53.0,47.0,30.69,NE,40,1.0,2.0,81,0.00,,,0.00,Meteo,2013-06-13 10:40:00,
2013-06-13 05:45:00,53.0,47.0,30.69,North,0,0.0,0.0,81,0.00,,,0.00,Meteo,2013-06-13 10:45:00,
2013-06-13 05:50:00,53.0,47.0,30.69,North,0,0.0,0.0,81,0.00,,,0.00,Meteo,2013-06-13 10:50:00,
2013-06-13 05:55:00,53.0,47.0,30.69,North,0,0.0,0.0,81,0.00,,,0.00,Meteo,2013-06-13 10:55:00,
2013-06-13 06:00:00,53.0,47.0,30.70,ENE,77,1.0,1.0,81,0.00,,,0.00,Meteo,2013-06-13 11:00:00,
2013-06-13 06:05:00,54.0,48.0,30.70,North,0,0.0,0.0,81,0.00,,,0.00,Meteo,2013-06-13 11:05:00,
2013-06-13 06:10:00,54.0,48.0,30.70,North,0,0.0,0.0,81,0.00,,,0.00,Meteo,2013-06-13 11:10:00,
2013-06-13 06:15:00,54.0,48.0,30.70,ENE,77,0.0,1.0,81,0.00,,,0.00,Meteo,2013-06-13 11:15:00,
2013-06-13 06:20:00,54.0,48.0,30.70,ENE,76,0.0,1.0,80,0.00,,,0.00,Meteo,2013-06-13 11:20:00,
2013-06-13 06:25:00,54.0,48.0,30.70,North,0,0.0,0.0,81,0.00,,,0.00,Meteo,2013-06-13 11:25:00,
2013-06-13 06:30:00,54.0,48.0,30.70,North,0,0.0,0.0,81,0.00,,,0.00,Meteo,2013-06-13 11:30:00,
2013-06-13 06:35:00,55.0,49.0,30.70,NE,43,0.0,1.0,81,0.00,,,0.00,Meteo,2013-06-13 11:35:00,
2013-06-13 06:40:00,55.0,49.0,30.71,North,350,1.0,2.0,81,0.00,,,0.00,Meteo,2013-06-13 11:40:00,
2013-06-13 06:45:00,55.0,49.0,30.70,North,349,0.0,1.0,81,0.00,,,0.00,Meteo,2013-06-13 11:45:00,
2013-06-13 06:50:00,56.0,51.0,30.70,North,349,1.0,2.0,82,0.00,,,0.00,Meteo,2013-06-13 11:50:00,
2013-06-13 06:55:00,56.0,50.0,30.71,NW,319,2.0,4.0,81,0.00,,,0.00,Meteo,2013-06-13 11:55:00,
2013-06-13 07:00:00,56.0,50.0,30.71,NNW,333,2.0,4.0,81,0.00,,,0.00,Meteo,2013-06-13 12:00:00,
2013-06-13 07:05:00,56.0,50.0,30.71,NNW,331,2.0,4.0,81,0.00,,,0.00,Meteo,2013-06-13 12:05:00,
2013-06-13 07:10:00,56.0,50.0,30.71,NW,326,1.0,2.0,80,0.00,,,0.00,Meteo,2013-06-13 12:10:00,
2013-06-13 07:15:00,57.0,51.0,30.71,NW,321,2.0,4.0,79,0.00,,,0.00,Meteo,2013-06-13 12:15:00,
2013-06-13 07:20:00,57.0,50.0,30.71,NW,326,1.0,3.0,78,0.00,,,0.00,Meteo,2013-06-13 12:20:00,
2013-06-13 07:25:00,57.0,50.0,30.71,NNW,330,2.0,4.0,78,0.00,,,0.00,Meteo,2013-06-13 12:25:00,
2013-06-13 07:30:00,57.0,50.0,30.71,NNW,345,2.0,4.0,76,0.00,,,0.00,Meteo,2013-06-13 12:30:00,
2013-06-13 07:35:00,58.0,50.0,30.71,NNW,329,2.0,4.0,76,0.00,,,0.00,Meteo,2013-06-13 12:35:00,
2013-06-13 07:40:00,58.0,50.0,30.71,NW,319,4.0,6.0,74,0.00,,,0.00,Meteo,2013-06-13 12:40:00,
2013-06-13 07:45:00,58.0,50.0,30.71,NNW,333,2.0,2.0,74,0.00,,,0.00,Meteo,2013-06-13 12:45:00,
2013-06-13 07:50:00,59.0,51.0,30.71,NW,321,1.0,4.0,74,0.00,,,0.00,Meteo,2013-06-13 12:50:00,
2013-06-13 07:55:00,59.0,50.0,30.71,NE,37,1.0,2.0,73,0.00,,,0.00,Meteo,2013-06-13 12:55:00,
2013-06-13 08:00:00,60.0,51.0,30.71,ENE,77,1.0,4.0,71,0.00,,,0.00,Meteo,2013-06-13 13:00:00,
2013-06-13 08:05:00,60.0,50.0,30.72,NNW,348,2.0,3.0,69,0.00,,,0.00,Meteo,2013-06-13 13:05:00,
2013-06-13 08:10:00,60.0,50.0,30.72,NNW,339,1.0,3.0,70,0.00,,,0.00,Meteo,2013-06-13 13:10:00,
2013-06-13 08:15:00,60.0,49.0,30.72,North,355,1.0,3.0,68,0.00,,,0.00,Meteo,2013-06-13 13:15:00,
2013-06-13 08:20:00,61.0,51.0,30.72,NE,56,3.0,7.0,69,0.00,,,0.00,Meteo,2013-06-13 13:20:00,
2013-06-13 08:25:00,61.0,50.0,30.72,North,352,3.0,5.0,68,0.00,,,0.00,Meteo,2013-06-13 13:25:00,
2013-06-13 08:30:00,61.0,50.0,30.72,NNW,346,4.0,6.0,67,0.00,,,0.00,Meteo,2013-06-13 13:30:00,
2013-06-13 08:35:00,61.0,50.0,30.72,North,2,1.0,4.0,68,0.00,,,0.00,Meteo,2013-06-13 13:35:00,
2013-06-13 08:40:00,61.0,50.0,30.73,NNW,345,3.0,6.0,67,0.00,,,0.00,Meteo,2013-06-13 13:40:00,
2013-06-13 08:45:00,61.0,50.0,30.73,NNW,331,2.0,3.0,68,0.00,,,0.00,Meteo,2013-06-13 13:45:00,
2013-06-13 08:50:00,61.0,50.0,30.73,NW,321,4.0,8.0,67,0.00,,,0.00,Meteo,2013-06-13 13:50:00,
2013-06-13 08:55:00,61.0,50.0,30.73,NNW,342,5.0,9.0,67,0.00,,,0.00,Meteo,2013-06-13 13:55:00,
2013-06-13 09:00:00,61.0,50.0,30.73,NNE,25,3.0,5.0,67,0.00,,,0.00,Meteo,2013-06-13 14:00:00,
2013-06-13 09:05:00,62.0,51.0,30.73,NNW,346,3.0,5.0,67,0.00,,,0.00,Meteo,2013-06-13 14:05:00,
2013-06-13 09:10:00,62.0,51.0,30.74,NNE,21,3.0,4.0,67,0.00,,,0.00,Meteo,2013-06-13 14:10:00,
2013-06-13 09:15:00,62.0,51.0,30.73,NNW,341,3.0,5.0,66,0.00,,,0.00,Meteo,2013-06-13 14:15:00,
2013-06-13 09:20:00,62.0,51.0,30.73,NNW,343,4.0,6.0,66,0.00,,,0.00,Meteo,2013-06-13 14:20:00,
2013-06-13 09:25:00,63.0,51.0,30.74,NE,39,2.0,3.0,64,0.00,,,0.00,Meteo,2013-06-13 14:25:00,
2013-06-13 09:31:00,63.0,50.0,30.74,North,4,2.0,3.0,63,0.00,,,0.00,Meteo,2013-06-13 14:31:00,
2013-06-13 09:36:00,63.0,50.0,30.74,NNE,21,3.0,6.0,62,0.00,,,0.00,Meteo,2013-06-13 14:36:00,
2013-06-13 09:41:00,64.0,50.0,30.74,NE,34,3.0,4.0,61,0.00,,,0.00,Meteo,2013-06-13 14:41:00,
2013-06-13 09:46:00,63.0,49.0,30.73,North,5,2.0,4.0,61,0.00,,,0.00,Meteo,2013-06-13 14:46:00,
2013-06-13 09:51:00,63.0,50.0,30.73,North,352,3.0,5.0,63,0.00,,,0.00,Meteo,2013-06-13 14:51:00,
2013-06-13 09:56:00,63.0,48.0,30.73,NE,50,3.0,5.0,59,0.00,,,0.00,Meteo,2013-06-13 14:56:00,
2013-06-13 10:01:00,65.0,49.0,30.73,NE,40,3.0,5.0,56,0.00,,,0.00,Meteo,2013-06-13 15:01:00,
2013-06-13 10:06:00,65.0,48.0,30.73,NE,47,4.0,5.0,55,0.00,,,0.00,Meteo,2013-06-13 15:06:00,
2013-06-13 10:11:00,64.0,48.0,30.73,North,3,2.0,4.0,55,0.00,,,0.00,Meteo,2013-06-13 15:11:00,
2013-06-13 10:16:00,64.0,48.0,30.73,North,0,4.0,10.0,57,0.00,,,0.00,Meteo,2013-06-13 15:16:00,
2013-06-13 10:21:00,64.0,48.0,30.73,NE,48,4.0,7.0,55,0.00,,,0.00,Meteo,2013-06-13 15:21:00,
2013-06-13 10:26:00,64.0,48.0,30.74,NE,44,4.0,7.0,56,0.00,,,0.00,Meteo,2013-06-13 15:26:00,
2013-06-13 10:31:00,64.0,47.0,30.73,NNE,22,3.0,4.0,54,0.00,,,0.00,Meteo,2013-06-13 15:31:00,
2013-06-13 10:36:00,64.0,47.0,30.74,NE,35,2.0,4.0,54,0.00,,,0.00,Meteo,2013-06-13 15:36:00,
2013-06-13 10:41:00,65.0,48.0,30.73,ENE,69,5.0,9.0,54,0.00,,,0.00,Meteo,2013-06-13 15:41:00,
2013-06-13 10:46:00,65.0,47.0,30.73,NE,36,2.0,5.0,52,0.00,,,0.00,Meteo,2013-06-13 15:46:00,
2013-06-13 10:51:00,65.0,47.0,30.73,NNW,343,1.0,3.0,53,0.00,,,0.00,Meteo,2013-06-13 15:51:00,
2013-06-13 10:56:00,65.0,48.0,30.73,North,9,2.0,4.0,55,0.00,,,0.00,Meteo,2013-06-13 15:56:00,
2013-06-13 11:01:00,65.0,47.0,30.74,North,7,3.0,4.0,53,0.00,,,0.00,Meteo,2013-06-13 16:01:00,
2013-06-13 11:06:00,66.0,48.0,30.74,NNE,32,2.0,3.0,53,0.00,,,0.00,Meteo,2013-06-13 16:06:00,
2013-06-13 11:11:00,66.0,48.0,30.74,NNE,19,1.0,4.0,53,0.00,,,0.00,Meteo,2013-06-13 16:11:00,
2013-06-13 11:16:00,65.0,47.0,30.74,North,1,2.0,4.0,53,0.00,,,0.00,Meteo,2013-06-13 16:16:00,
2013-06-13 11:21:00,65.0,48.0,30.74,North,349,4.0,7.0,55,0.00,,,0.00,Meteo,2013-06-13 16:21:00,
2013-06-13 11:26:00,64.0,48.0,30.74,NNW,346,2.0,4.0,56,0.00,,,0.00,Meteo,2013-06-13 16:26:00,
2013-06-13 11:31:00,65.0,48.0,30.74,North,10,3.0,5.0,55,0.00,,,0.00,Meteo,2013-06-13 16:31:00,
2013-06-13 11:36:00,65.0,48.0,30.74,NE,56,3.0,7.0,55,0.00,,,0.00,Meteo,2013-06-13 16:36:00,
2013-06-13 11:41:00,66.0,47.0,30.74,NNE,25,3.0,6.0,51,0.00,,,0.00,Meteo,2013-06-13 16:41:00,
2013-06-13 11:46:00,66.0,48.0,30.75,ENE,67,6.0,8.0,52,0.00,,,0.00,Meteo,2013-06-13 16:46:00,
2013-06-13 11:51:00,66.0,46.0,30.75,ENE,67,5.0,10.0,48,0.00,,,0.00,Meteo,2013-06-13 16:51:00,
2013-06-13 11:56:00,67.0,45.0,30.75,ENE,70,4.0,6.0,45,0.00,,,0.00,Meteo,2013-06-13 16:56:00,
2013-06-13 12:01:00,67.0,44.0,30.74,NE,49,4.0,6.0,44,0.00,,,0.00,Meteo,2013-06-13 17:01:00,
2013-06-13 12:06:00,67.0,44.0,30.75,North,3,2.0,4.0,44,0.00,,,0.00,Meteo,2013-06-13 17:06:00,
2013-06-13 12:11:00,66.0,43.0,30.75,NNE,17,3.0,6.0,43,0.00,,,0.00,Meteo,2013-06-13 17:11:00,
2013-06-13 12:16:00,67.0,44.0,30.75,NNE,13,3.0,4.0,43,0.00,,,0.00,Meteo,2013-06-13 17:16:00,
2013-06-13 12:21:00,67.0,40.0,30.76,NE,40,5.0,6.0,37,0.00,,,0.00,Meteo,2013-06-13 17:21:00,
2013-06-13 12:26:00,67.0,43.0,30.76,ENE,60,3.0,6.0,41,0.00,,,0.00,Meteo,2013-06-13 17:26:00,
2013-06-13 12:31:00,67.0,46.0,30.76,East,87,3.0,5.0,47,0.00,,,0.00,Meteo,2013-06-13 17:31:00,
2013-06-13 12:36:00,68.0,45.0,30.76,East,88,4.0,5.0,44,0.00,,,0.00,Meteo,2013-06-13 17:36:00,
2013-06-13 12:41:00,68.0,46.0,30.76,NNW,345,3.0,4.0,45,0.00,,,0.00,Meteo,2013-06-13 17:41:00,
2013-06-13 12:46:00,68.0,46.0,30.76,NE,50,4.0,5.0,45,0.00,,,0.00,Meteo,2013-06-13 17:46:00,
2013-06-13 12:51:00,68.0,46.0,30.76,NNE,22,3.0,4.0,46,0.00,,,0.00,Meteo,2013-06-13 17:51:00,
2013-06-13 12:56:00,67.0,46.0,30.75,North,357,2.0,3.0,47,0.00,,,0.00,Meteo,2013-06-13 17:56:00,
2013-06-13 13:01:00,67.0,47.0,30.76,North,0,2.0,3.0,49,0.00,,,0.00,Meteo,2013-06-13 18:01:00,
2013-06-13 13:06:00,67.0,47.0,30.76,ENE,69,3.0,5.0,48,0.00,,,0.00,Meteo,2013-06-13 18:06:00,
2013-06-13 13:11:00,68.0,48.0,30.76,North,354,3.0,5.0,48,0.00,,,0.00,Meteo,2013-06-13 18:11:00,
2013-06-13 13:16:00,67.0,47.0,30.76,NNE,16,2.0,3.0,49,0.00,,,0.00,Meteo,2013-06-13 18:16:00,
2013-06-13 13:21:00,68.0,47.0,30.76,NE,34,2.0,4.0,47,0.00,,,0.00,Meteo,2013-06-13 18:21:00,
2013-06-13 13:26:00,68.0,47.0,30.76,NNE,27,2.0,3.0,47,0.00,,,0.00,Meteo,2013-06-13 18:26:00,
2013-06-13 13:31:00,68.0,48.0,30.77,NNW,334,4.0,8.0,48,0.00,,,0.00,Meteo,2013-06-13 18:31:00,
2013-06-13 13:36:00,68.0,47.0,30.77,NNW,337,3.0,6.0,47,0.00,,,0.00,Meteo,2013-06-13 18:36:00,
2013-06-13 13:41:00,67.0,47.0,30.77,North,351,2.0,5.0,48,0.00,,,0.00,Meteo,2013-06-13 18:41:00,
2013-06-13 13:46:00,67.0,47.0,30.77,North,0,2.0,2.0,48,0.00,,,0.00,Meteo,2013-06-13 18:46:00,
2013-06-13 13:51:00,67.0,47.0,30.77,North,353,2.0,3.0,48,0.00,,,0.00,Meteo,2013-06-13 18:51:00,
2013-06-13 13:56:00,67.0,47.0,30.77,NE,44,2.0,3.0,49,0.00,,,0.00,Meteo,2013-06-13 18:56:00,
2013-06-13 14:01:00,67.0,47.0,30.78,NNE,12,2.0,4.0,49,0.00,,,0.00,Meteo,2013-06-13 19:01:00,
2013-06-13 14:06:00,67.0,47.0,30.77,NNW,336,2.0,4.0,49,0.00,,,0.00,Meteo,2013-06-13 19:06:00,
2013-06-13 14:11:00,67.0,47.0,30.77,NNW,341,4.0,6.0,48,0.00,,,0.00,Meteo,2013-06-13 19:11:00,
2013-06-13 14:16:00,68.0,48.0,30.77,NNE,18,2.0,3.0,48,0.00,,,0.00,Meteo,2013-06-13 19:16:00,
2013-06-13 14:21:00,68.0,48.0,30.78,NNW,348,1.0,3.0,48,0.00,,,0.00,Meteo,2013-06-13 19:21:00,
2013-06-13 14:26:00,67.0,47.0,30.78,North,6,2.0,4.0,48,0.00,,,0.00,Meteo,2013-06-13 19:26:00,
2013-06-13 14:31:00,67.0,48.0,30.78,NNW,347,2.0,3.0,50,0.00,,,0.00,Meteo,2013-06-13 19:31:00,
2013-06-13 14:36:00,67.0,47.0,30.78,NNW,341,2.0,3.0,49,0.00,,,0.00,Meteo,2013-06-13 19:36:00,
2013-06-13 14:41:00,67.0,47.0,30.78,NNW,348,2.0,4.0,49,0.00,,,0.00,Meteo,2013-06-13 19:41:00,
2013-06-13 14:46:00,67.0,48.0,30.78,NNW,344,3.0,7.0,51,0.00,,,0.00,Meteo,2013-06-13 19:46:00,
2013-06-13 14:51:00,68.0,48.0,30.79,North,4,2.0,3.0,49,0.00,,,0.00,Meteo,2013-06-13 19:51:00,
2013-06-13 14:56:00,68.0,48.0,30.78,North,356,2.0,3.0,49,0.00,,,0.00,Meteo,2013-06-13 19:56:00,
2013-06-13 15:01:00,68.0,48.0,30.78,NNE,22,2.0,4.0,48,0.00,,,0.00,Meteo,2013-06-13 20:01:00,
2013-06-13 15:06:00,68.0,48.0,30.78,NE,50,2.0,3.0,48,0.00,,,0.00,Meteo,2013-06-13 20:06:00,
2013-06-13 15:11:00,68.0,47.0,30.78,NE,49,2.0,4.0,47,0.00,,,0.00,Meteo,2013-06-13 20:11:00,
2013-06-13 15:16:00,68.0,48.0,30.79,NE,48,1.0,3.0,49,0.00,,,0.00,Meteo,2013-06-13 20:16:00,
2013-06-13 15:21:00,69.0,49.0,30.78,NNW,338,4.0,7.0,49,0.00,,,0.00,Meteo,2013-06-13 20:21:00,
2013-06-13 15:27:00,68.0,46.0,30.78,North,354,3.0,5.0,46,0.00,,,0.00,Meteo,2013-06-13 20:27:00,
2013-06-13 15:32:00,68.0,48.0,30.78,North,349,2.0,6.0,48,0.00,,,0.00,Meteo,2013-06-13 20:32:00,
2013-06-13 15:37:00,68.0,46.0,30.78,NW,323,4.0,6.0,46,0.00,,,0.00,Meteo,2013-06-13 20:37:00,
2013-06-13 15:42:00,68.0,46.0,30.79,North,349,2.0,3.0,46,0.00,,,0.00,Meteo,2013-06-13 20:42:00,
2013-06-13 15:47:00,68.0,47.0,30.79,North,10,1.0,3.0,47,0.00,,,0.00,Meteo,2013-06-13 20:47:00,
2013-06-13 15:52:00,68.0,46.0,30.78,ENE,67,3.0,6.0,46,0.00,,,0.00,Meteo,2013-06-13 20:52:00,
2013-06-13 15:57:00,69.0,47.0,30.78,NNW,337,3.0,4.0,46,0.00,,,0.00,Meteo,2013-06-13 20:57:00,
2013-06-13 16:02:00,68.0,46.0,30.78,NNE,15,2.0,4.0,46,0.00,,,0.00,Meteo,2013-06-13 21:02:00,
2013-06-13 16:07:00,68.0,46.0,30.78,NNW,339,3.0,4.0,46,0.00,,,0.00,Meteo,2013-06-13 21:07:00,
2013-06-13 16:12:00,68.0,48.0,30.78,NNW,344,3.0,4.0,48,0.00,,,0.00,Meteo,2013-06-13 21:12:00,
2013-06-13 16:17:00,68.0,48.0,30.79,NNW,342,3.0,4.0,48,0.00,,,0.00,Meteo,2013-06-13 21:17:00,
2013-06-13 16:22:00,68.0,48.0,30.79,NNW,339,3.0,6.0,49,0.00,,,0.00,Meteo,2013-06-13 21:22:00,
2013-06-13 16:27:00,67.0,47.0,30.79,NNW,347,3.0,6.0,49,0.00,,,0.00,Meteo,2013-06-13 21:27:00,
2013-06-13 16:32:00,67.0,48.0,30.79,NNW,345,4.0,6.0,51,0.00,,,0.00,Meteo,2013-06-13 21:32:00,
2013-06-13 16:37:00,67.0,49.0,30.79,NE,47,2.0,5.0,52,0.00,,,0.00,Meteo,2013-06-13 21:37:00,
2013-06-13 16:42:00,67.0,49.0,30.79,NNW,347,3.0,4.0,52,0.00,,,0.00,Meteo,2013-06-13 21:42:00,
2013-06-13 16:47:00,67.0,49.0,30.78,NNE,23,2.0,4.0,53,0.00,,,0.00,Meteo,2013-06-13 21:47:00,
2013-06-13 16:52:00,67.0,48.0,30.78,NNE,17,3.0,4.0,51,0.00,,,0.00,Meteo,2013-06-13 21:52:00,
2013-06-13 16:57:00,67.0,48.0,30.78,NE,47,2.0,4.0,50,0.00,,,0.00,Meteo,2013-06-13 21:57:00,
2013-06-13 17:02:00,67.0,48.0,30.79,NNE,14,2.0,4.0,50,0.00,,,0.00,Meteo,2013-06-13 22:02:00,
2013-06-13 17:07:00,67.0,48.0,30.79,NNE,12,2.0,4.0,50,0.00,,,0.00,Meteo,2013-06-13 22:07:00,
2013-06-13 17:12:00,67.0,47.0,30.79,NNE,20,2.0,3.0,49,0.00,,,0.00,Meteo,2013-06-13 22:12:00,
2013-06-13 17:17:00,67.0,48.0,30.79,NNE,13,2.0,5.0,50,0.00,,,0.00,Meteo,2013-06-13 22:17:00,
2013-06-13 17:22:00,67.0,48.0,30.79,NNE,33,2.0,3.0,50,0.00,,,0.00,Meteo,2013-06-13 22:22:00,
2013-06-13 17:28:00,67.0,48.0,30.78,NE,43,2.0,3.0,50,0.00,,,0.00,Meteo,2013-06-13 22:28:00,
2013-06-13 17:33:00,67.0,47.0,30.78,NNW,342,3.0,6.0,49,0.00,,,0.00,Meteo,2013-06-13 22:33:00,
2013-06-13 17:38:00,67.0,47.0,30.78,NE,46,3.0,6.0,49,0.00,,,0.00,Meteo,2013-06-13 22:38:00,
2013-06-13 17:43:00,67.0,46.0,30.78,North,355,3.0,4.0,47,0.00,,,0.00,Meteo,2013-06-13 22:43:00,
2013-06-13 17:49:00,67.0,47.0,30.78,NE,44,2.0,3.0,48,0.00,,,0.00,Meteo,2013-06-13 22:49:00,
2013-06-13 17:54:00,67.0,47.0,30.77,NNE,13,2.0,4.0,48,0.00,,,0.00,Meteo,2013-06-13 22:54:00,
2013-06-13 17:59:00,66.0,46.0,30.78,North,356,2.0,4.0,49,0.00,,,0.00,Meteo,2013-06-13 22:59:00,
2013-06-13 18:04:00,67.0,48.0,30.77,North,352,2.0,4.0,50,0.00,,,0.00,Meteo,2013-06-13 23:04:00,
2013-06-13 18:09:00,67.0,48.0,30.77,ENE,73,2.0,3.0,51,0.00,,,0.00,Meteo,2013-06-13 23:09:00,
2013-06-13 18:14:00,67.0,48.0,30.77,NNE,28,2.0,3.0,50,0.00,,,0.00,Meteo,2013-06-13 23:14:00,
2013-06-13 18:20:00,67.0,47.0,30.77,North,350,1.0,3.0,49,0.00,,,0.00,Meteo,2013-06-13 23:20:00,
2013-06-13 18:25:00,67.0,48.0,30.77,NE,40,1.0,2.0,51,0.00,,,0.00,Meteo,2013-06-13 23:25:00,
2013-06-13 18:30:00,67.0,48.0,30.77,ENE,70,2.0,4.0,51,0.00,,,0.00,Meteo,2013-06-13 23:30:00,
2013-06-13 18:35:00,68.0,49.0,30.77,NE,35,3.0,4.0,51,0.00,,,0.00,Meteo,2013-06-13 23:35:00,
2013-06-13 18:40:00,69.0,50.0,30.76,ENE,66,3.0,4.0,50,0.00,,,0.00,Meteo,2013-06-13 23:40:00,
2013-06-13 18:45:00,69.0,49.0,30.76,ENE,61,2.0,6.0,49,0.00,,,0.00,Meteo,2013-06-13 23:45:00,
2013-06-13 18:50:00,69.0,50.0,30.76,ENE,61,2.0,3.0,50,0.00,,,0.00,Meteo,2013-06-13 23:50:00,
2013-06-13 18:55:00,69.0,50.0,30.76,East,85,3.0,6.0,50,0.00,,,0.00,Meteo,2013-06-13 23:55:00,
2013-06-13 19:00:00,70.0,51.0,30.76,East,94,2.0,3.0,50,0.00,,,0.00,Meteo,2013-06-14 00:00:00,
2013-06-13 19:05:00,69.0,50.0,30.76,ENE,60,1.0,3.0,50,0.00,,,0.00,Meteo,2013-06-14 00:05:00,
2013-06-13 19:10:00,69.0,51.0,30.77,East,88,2.0,3.0,53,0.00,,,0.00,Meteo,2013-06-14 00:10:00,
2013-06-13 19:15:00,68.0,50.0,30.77,East,81,0.0,1.0,53,0.00,,,0.00,Meteo,2013-06-14 00:15:00,
2013-06-13 19:20:00,68.0,51.0,30.77,East,90,1.0,4.0,54,0.00,,,0.00,Meteo,2013-06-14 00:20:00,
2013-06-13 19:25:00,68.0,51.0,30.77,East,86,3.0,5.0,54,0.00,,,0.00,Meteo,2013-06-14 00:25:00,
2013-06-13 19:30:00,67.0,50.0,30.76,ENE,69,3.0,4.0,55,0.00,,,0.00,Meteo,2013-06-14 00:30:00,
2013-06-13 19:35:00,67.0,51.0,30.76,East,91,2.0,3.0,57,0.00,,,0.00,Meteo,2013-06-14 00:35:00,
2013-06-13 19:40:00,66.0,50.0,30.76,ENE,68,3.0,4.0,57,0.00,,,0.00,Meteo,2013-06-14 00:40:00,
2013-06-13 19:45:00,66.0,51.0,30.76,East,83,2.0,4.0,58,0.00,,,0.00,Meteo,2013-06-14 00:45:00,
2013-06-13 19:50:00,65.0,51.0,30.76,ENE,71,3.0,5.0,60,0.00,,,0.00,Meteo,2013-06-14 00:50:00,
2013-06-13 19:55:00,65.0,51.0,30.76,East,81,2.0,3.0,61,0.00,,,0.00,Meteo,2013-06-14 00:55:00,
2013-06-13 20:00:00,65.0,51.0,30.76,East,92,1.0,2.0,61,0.00,,,0.00,Meteo,2013-06-14 01:00:00,
2013-06-13 20:05:00,64.0,50.0,30.76,NE,52,2.0,2.0,61,0.00,,,0.00,Meteo,2013-06-14 01:05:00,
2013-06-13 20:10:00,64.0,51.0,30.76,ENE,63,1.0,2.0,62,0.00,,,0.00,Meteo,2013-06-14 01:10:00,
2013-06-13 20:15:00,64.0,51.0,30.76,ENE,78,1.0,1.0,62,0.00,,,0.00,Meteo,2013-06-14 01:15:00,
2013-06-13 20:20:00,64.0,51.0,30.76,NNE,28,1.0,3.0,62,0.00,,,0.00,Meteo,2013-06-14 01:20:00,
2013-06-13 20:25:00,64.0,51.0,30.76,East,80,2.0,4.0,62,0.00,,,0.00,Meteo,2013-06-14 01:25:00,
2013-06-13 20:30:00,64.0,51.0,30.76,ENE,77,0.0,1.0,62,0.00,,,0.00,Meteo,2013-06-14 01:30:00,
2013-06-13 20:35:00,64.0,51.0,30.76,ENE,68,2.0,4.0,62,0.00,,,0.00,Meteo,2013-06-14 01:35:00,
2013-06-13 20:41:00,64.0,51.0,30.76,ENE,76,0.0,1.0,63,0.00,,,0.00,Meteo,2013-06-14 01:41:00,
2013-06-13 20:46:00,63.0,51.0,30.76,North,0,0.0,0.0,64,0.00,,,0.00,Meteo,2013-06-14 01:46:00,
2013-06-13 20:51:00,63.0,51.0,30.76,North,0,0.0,0.0,66,0.00,,,0.00,Meteo,2013-06-14 01:51:00,
2013-06-13 20:56:00,62.0,52.0,30.76,North,0,0.0,0.0,70,0.00,,,0.00,Meteo,2013-06-14 01:56:00,
2013-06-13 21:01:00,61.0,52.0,30.76,ENE,72,0.0,1.0,72,0.00,,,0.00,Meteo,2013-06-14 02:01:00,
2013-06-13 21:06:00,61.0,52.0,30.76,North,0,0.0,0.0,72,0.00,,,0.00,Meteo,2013-06-14 02:06:00,
2013-06-13 21:11:00,60.0,51.0,30.76,North,0,0.0,0.0,73,0.00,,,0.00,Meteo,2013-06-14 02:11:00,
2013-06-13 21:16:00,60.0,51.0,30.76,North,0,0.0,0.0,73,0.00,,,0.00,Meteo,2013-06-14 02:16:00,
2013-06-13 21:21:00,60.0,52.0,30.76,North,0,0.0,0.0,74,0.00,,,0.00,Meteo,2013-06-14 02:21:00,
2013-06-13 21:26:00,60.0,52.0,30.76,North,0,0.0,0.0,74,0.00,,,0.00,Meteo,2013-06-14 02:26:00,
2013-06-13 21:31:00,59.0,51.0,30.76,North,0,0.0,0.0,75,0.00,,,0.00,Meteo,2013-06-14 02:31:00,
2013-06-13 21:36:00,59.0,51.0,30.76,North,0,0.0,0.0,75,0.00,,,0.00,Meteo,2013-06-14 02:36:00,
2013-06-13 21:41:00,59.0,51.0,30.76,North,0,0.0,0.0,75,0.00,,,0.00,Meteo,2013-06-14 02:41:00,
2013-06-13 21:46:00,59.0,51.0,30.76,North,0,0.0,0.0,74,0.00,,,0.00,Meteo,2013-06-14 02:46:00,
2013-06-13 21:51:00,59.0,51.0,30.76,North,0,0.0,0.0,74,0.00,,,0.00,Meteo,2013-06-14 02:51:00,
2013-06-13 21:56:00,59.0,51.0,30.76,North,0,0.0,0.0,74,0.00,,,0.00,Meteo,2013-06-14 02:56:00,
2013-06-13 22:01:00,59.0,51.0,30.76,North,0,1.0,2.0,76,0.00,,,0.00,Meteo,2013-06-14 03:01:00,
2013-06-13 22:06:00,59.0,52.0,30.76,North,0,0.0,0.0,78,0.00,,,0.00,Meteo,2013-06-14 03:06:00,
2013-06-13 22:11:00,58.0,51.0,30.76,North,0,0.0,0.0,78,0.00,,,0.00,Meteo,2013-06-14 03:11:00,
2013-06-13 22:16:00,58.0,52.0,30.76,North,0,0.0,0.0,79,0.00,,,0.00,Meteo,2013-06-14 03:16:00,
2013-06-13 22:21:00,58.0,52.0,30.76,North,0,0.0,0.0,79,0.00,,,0.00,Meteo,2013-06-14 03:21:00,
2013-06-13 22:26:00,58.0,51.0,30.76,North,0,0.0,0.0,78,0.00,,,0.00,Meteo,2013-06-14 03:26:00,
2013-06-13 22:31:00,58.0,51.0,30.77,North,0,0.0,0.0,78,0.00,,,0.00,Meteo,2013-06-14 03:31:00,
2013-06-13 22:36:00,58.0,52.0,30.77,North,0,0.0,0.0,79,0.00,,,0.00,Meteo,2013-06-14 03:36:00,
2013-06-13 22:41:00,58.0,52.0,30.77,North,0,0.0,0.0,79,0.00,,,0.00,Meteo,2013-06-14 03:41:00,
2013-06-13 22:46:00,58.0,52.0,30.77,North,0,0.0,0.0,80,0.00,,,0.00,Meteo,2013-06-14 03:46:00,
2013-06-13 22:51:00,57.0,51.0,30.77,North,0,0.0,0.0,80,0.00,,,0.00,Meteo,2013-06-14 03:51:00,
2013-06-13 22:56:00,57.0,51.0,30.78,North,0,0.0,0.0,81,0.00,,,0.00,Meteo,2013-06-14 03:56:00,
2013-06-13 23:01:00,57.0,51.0,30.78,North,0,0.0,0.0,81,0.00,,,0.00,Meteo,2013-06-14 04:01:00,
2013-06-13 23:02:00,57.0,51.0,30.78,North,0,0.0,0.0,81,0.00,,,0.00,Meteo,2013-06-14 04:02:00,
2013-06-13 23:03:00,57.0,51.0,30.78,North,0,0.0,0.0,81,0.00,,,0.00,Meteo,2013-06-14 04:03:00,
2013-06-13 23:07:00,57.0,52.0,30.78,North,0,0.0,0.0,82,0.00,,,0.00,Meteo,2013-06-14 04:07:00,
2013-06-13 23:09:00,56.0,51.0,30.78,North,0,0.0,0.0,82,0.00,,,0.00,Meteo,2013-06-14 04:09:00,
2013-06-13 23:14:00,56.0,51.0,30.78,North,0,0.0,0.0,82,0.00,,,0.00,Meteo,2013-06-14 04:14:00,
2013-06-13 23:19:00,56.0,51.0,30.78,North,0,0.0,0.0,84,0.00,,,0.00,Meteo,2013-06-14 04:19:00,
2013-06-13 23:24:00,56.0,51.0,30.78,North,0,0.0,0.0,84,0.00,,,0.00,Meteo,2013-06-14 04:24:00,
2013-06-13 23:29:00,56.0,51.0,30.78,North,0,0.0,0.0,84,0.00,,,0.00,Meteo,2013-06-14 04:29:00,
2013-06-13 23:34:00,55.0,50.0,30.78,North,0,0.0,1.0,84,0.00,,,0.00,Meteo,2013-06-14 04:34:00,
2013-06-13 23:39:00,55.0,51.0,30.77,North,0,0.0,0.0,85,0.00,,,0.00,Meteo,2013-06-14 04:39:00,
2013-06-13 23:44:00,55.0,51.0,30.77,North,0,1.0,1.0,86,0.00,,,0.00,Meteo,2013-06-14 04:44:00,
2013-06-13 23:49:00,55.0,51.0,30.77,North,0,0.0,0.0,86,0.00,,,0.00,Meteo,2013-06-14 04:49:00,
2013-06-13 23:55:00,55.0,51.0,30.78,North,0,0.0,0.0,87,0.00,,,0.00,Meteo,2013-06-14 04:55:00,